This is the latest recevied weather packets stored in our database for station/object K0SNA. If no packets are shown the sender has not sent any weather packets the latest 1 day(s).
| Time | Temp. | Humidity | Pressure | Rain* | Wind** | Luminosity | Snow |
|---|---|---|---|---|---|---|---|
| 1777991568 | 7.22° C | 43% | 1011.2 hPa | 0 mm | 1.34 m/s, 269° | 405 W/m² | - |
| 1777991264 | 6.67° C | 44% | 1011.3 hPa | 0 mm | 0.45 m/s, 206° | 392 W/m² | - |
| 1777990962 | 7.22° C | 43% | 1011.2 hPa | 0 mm | 1.79 m/s, 344° | 383 W/m² | - |
| 1777990659 | 7.22° C | 44% | 1011.2 hPa | 0 mm | 0.89 m/s, 241° | 369 W/m² | - |
| 1777990357 | 6.67° C | 44% | 1011.1 hPa | 0 mm | 0.89 m/s, 278° | 353 W/m² | - |
| 1777990052 | 6.11° C | 45% | 1010.9 hPa | 0 mm | 0.45 m/s, 195° | 339 W/m² | - |
| 1777989749 | 6.11° C | 44% | 1011.1 hPa | 0 mm | 2.24 m/s, 324° | 329 W/m² | - |
| 1777989446 | 5.56° C | 44% | 1011 hPa | 0 mm | 0.89 m/s, 278° | 313 W/m² | - |
| 1777989143 | 5.56° C | 44% | 1011.2 hPa | 0 mm | 1.79 m/s, 351° | 301 W/m² | - |
| 1777988838 | 5.56° C | 44% | 1011 hPa | 0 mm | 2.24 m/s, 339° | 288 W/m² | - |
| 1777988536 | 6.11° C | 44% | 1010.9 hPa | 0 mm | 1.34 m/s, 8° | 274 W/m² | - |
| 1777988233 | 6.11° C | 44% | 1010.8 hPa | 0 mm | 0.89 m/s, 239° | 261 W/m² | - |
| 1777987929 | 5.56° C | 44% | 1010.8 hPa | 0 mm | 1.34 m/s, 156° | 111 W/m² | - |
| 1777987624 | 5.56° C | 45% | 1010.9 hPa | 0 mm | 1.79 m/s, 41° | 232 W/m² | - |
| 1777987323 | 5.56° C | 45% | 1011 hPa | 0 mm | 0.89 m/s, 203° | 39 W/m² | - |
| 1777987019 | 5.56° C | 45% | 1010.9 hPa | 0 mm | 1.34 m/s, 77° | 204 W/m² | - |
| 1777986717 | 5.56° C | 46% | 1010.8 hPa | 0 mm | 1.79 m/s, 338° | 191 W/m² | - |
| 1777986414 | 5° C | 46% | 1010.7 hPa | 0 mm | 1.34 m/s, 227° | 141 W/m² | - |
| 1777986113 | 5° C | 47% | 1010.8 hPa | 0 mm | 1.79 m/s, 293° | 166 W/m² | - |
| 1777985809 | 5° C | 47% | 1010.8 hPa | 0 mm | 0.89 m/s, 117° | 156 W/m² | - |
| 1777985507 | 5° C | 49% | 1010.5 hPa | 0 mm | 1.34 m/s, 332° | 142 W/m² | - |
| 1777985203 | 5° C | 49% | 1010.5 hPa | 0 mm | 1.79 m/s, 338° | 39 W/m² | - |
| 1777984899 | 5° C | 50% | 1010.2 hPa | 0 mm | 0 m/s | 117 W/m² | - |
| 1777984590 | 5° C | 51% | 1010.2 hPa | 0 mm | 1.34 m/s, 336° | 45 W/m² | - |
| 1777984287 | 4.44° C | 51% | 1010 hPa | 0 mm | 1.34 m/s, 338° | 100 W/m² | - |
* Rain latest hour (hover to see other rain measurements)
** Current wind speed in m/s (hover to see current wind gust speed)